Year,Month,Day,Hour,Minute,Value (Times are PST for temperature in C)
2015,06,06,00,00,15.10
2015,06,06,00,01,15.10
2015,06,06,00,02,15.10
2015,06,06,00,03,15.10
2015,06,06,00,04,15.10
2015,06,06,00,05,15.20
2015,06,06,00,06,15.20
2015,06,06,00,07,15.20
2015,06,06,00,08,15.10
2015,06,06,00,09,15.10
2015,06,06,00,10,15.10
2015,06,06,00,11,15.10
2015,06,06,00,12,15.00
2015,06,06,00,13,15.00
2015,06,06,00,14,14.90
2015,06,06,00,15,14.90
2015,06,06,00,16,14.90
2015,06,06,00,17,14.80
2015,06,06,00,18,14.80
2015,06,06,00,19,14.70
2015,06,06,00,20,14.70
2015,06,06,00,21,14.60
2015,06,06,00,22,14.60
2015,06,06,00,23,14.50
2015,06,06,00,24,14.50
2015,06,06,00,25,14.40
2015,06,06,00,26,14.30
2015,06,06,00,27,14.30
2015,06,06,00,28,14.20
2015,06,06,00,29,14.10
2015,06,06,00,30,14.00
2015,06,06,00,31,14.00
2015,06,06,00,32,13.90
2015,06,06,00,33,13.80
2015,06,06,00,34,13.80
2015,06,06,00,35,13.80
2015,06,06,00,36,13.70
2015,06,06,00,37,13.70
2015,06,06,00,38,13.70
2015,06,06,00,39,13.60
2015,06,06,00,40,13.60
2015,06,06,00,41,13.60
2015,06,06,00,42,13.60
2015,06,06,00,43,13.50
2015,06,06,00,44,13.50
2015,06,06,00,45,13.50
2015,06,06,00,46,13.50
2015,06,06,00,47,13.50
2015,06,06,00,48,13.50
2015,06,06,00,49,13.50
2015,06,06,00,50,13.50
2015,06,06,00,51,13.50
2015,06,06,00,52,13.50
2015,06,06,00,53,13.50
2015,06,06,00,54,13.50
2015,06,06,00,55,13.40
2015,06,06,00,56,13.40
2015,06,06,00,57,13.40
2015,06,06,00,58,13.40
2015,06,06,00,59,13.40
2015,06,06,01,00,13.40
2015,06,06,01,01,13.40
2015,06,06,01,02,13.40
2015,06,06,01,03,13.40
2015,06,06,01,04,13.30
2015,06,06,01,05,13.30
2015,06,06,01,06,13.30
2015,06,06,01,07,13.30
2015,06,06,01,08,13.30
2015,06,06,01,09,13.30
2015,06,06,01,10,13.30
2015,06,06,01,11,13.30
2015,06,06,01,12,13.30
2015,06,06,01,13,13.30
2015,06,06,01,14,13.30
2015,06,06,01,15,13.30
2015,06,06,01,16,13.30
2015,06,06,01,17,13.30
2015,06,06,01,18,13.30
2015,06,06,01,19,13.30
2015,06,06,01,20,13.20
2015,06,06,01,21,13.20
2015,06,06,01,22,13.20
2015,06,06,01,23,13.20
2015,06,06,01,24,13.20
2015,06,06,01,25,13.20
2015,06,06,01,26,13.20
2015,06,06,01,27,13.10
2015,06,06,01,28,13.10
2015,06,06,01,29,13.10
2015,06,06,01,30,13.10
2015,06,06,01,31,13.00
2015,06,06,01,32,12.90
2015,06,06,01,33,12.90
2015,06,06,01,34,12.80
2015,06,06,01,35,12.70
2015,06,06,01,36,12.70
2015,06,06,01,37,12.60
2015,06,06,01,38,12.60
2015,06,06,01,39,12.60
2015,06,06,01,40,12.60
2015,06,06,01,41,12.60
2015,06,06,01,42,12.60
2015,06,06,01,43,12.60
2015,06,06,01,44,12.60
2015,06,06,01,45,12.60
2015,06,06,01,46,12.60
2015,06,06,01,47,12.60
2015,06,06,01,48,12.60
2015,06,06,01,49,12.60
2015,06,06,01,50,12.60
2015,06,06,01,51,12.60
2015,06,06,01,52,12.60
2015,06,06,01,53,12.50
2015,06,06,01,54,12.50
2015,06,06,01,55,12.50
2015,06,06,01,56,12.50
2015,06,06,01,57,12.50
2015,06,06,01,58,12.50
2015,06,06,01,59,12.50
2015,06,06,02,00,12.40
2015,06,06,02,01,12.40
2015,06,06,02,02,12.40
2015,06,06,02,03,12.40
2015,06,06,02,04,12.40
2015,06,06,02,05,12.30
2015,06,06,02,06,12.30
2015,06,06,02,07,12.30
2015,06,06,02,08,12.30
2015,06,06,02,09,12.30
2015,06,06,02,10,12.30
2015,06,06,02,11,12.30
2015,06,06,02,12,12.30
2015,06,06,02,13,12.30
2015,06,06,02,14,12.30
2015,06,06,02,15,12.30
2015,06,06,02,16,12.30
2015,06,06,02,17,12.30
2015,06,06,02,18,12.30
2015,06,06,02,19,12.30
2015,06,06,02,20,12.30
2015,06,06,02,21,12.30
2015,06,06,02,22,12.30
2015,06,06,02,23,12.30
2015,06,06,02,24,12.30
2015,06,06,02,25,12.30
2015,06,06,02,26,12.30
2015,06,06,02,27,12.30
2015,06,06,02,28,12.30
2015,06,06,02,29,12.30
2015,06,06,02,30,12.30
2015,06,06,02,31,12.30
2015,06,06,02,32,12.30
2015,06,06,02,33,12.20
2015,06,06,02,34,12.20
2015,06,06,02,35,12.20
2015,06,06,02,36,12.20
2015,06,06,02,37,12.20
2015,06,06,02,38,12.20
2015,06,06,02,39,12.10
2015,06,06,02,40,12.10
2015,06,06,02,41,12.10
2015,06,06,02,42,12.00
2015,06,06,02,43,12.00
2015,06,06,02,44,11.90
2015,06,06,02,45,11.90
2015,06,06,02,46,11.90
2015,06,06,02,47,11.90
2015,06,06,02,48,11.80
2015,06,06,02,49,11.80
2015,06,06,02,50,11.80
2015,06,06,02,51,11.80
2015,06,06,02,52,11.80
2015,06,06,02,53,11.80
2015,06,06,02,54,11.70
2015,06,06,02,55,11.70
2015,06,06,02,56,11.70
2015,06,06,02,57,11.60
2015,06,06,02,58,11.60
2015,06,06,02,59,11.60
2015,06,06,03,00,11.60
2015,06,06,03,01,11.60
2015,06,06,03,02,11.50
2015,06,06,03,03,11.50
2015,06,06,03,04,11.50
2015,06,06,03,05,11.50
2015,06,06,03,06,11.50
2015,06,06,03,07,11.50
2015,06,06,03,08,11.40
2015,06,06,03,09,11.40
2015,06,06,03,10,11.40
2015,06,06,03,11,11.40
2015,06,06,03,12,11.40
2015,06,06,03,13,11.40
2015,06,06,03,14,11.40
2015,06,06,03,15,11.40
2015,06,06,03,16,11.40
2015,06,06,03,17,11.40
2015,06,06,03,18,11.40
2015,06,06,03,19,11.40
2015,06,06,03,20,11.40
2015,06,06,03,21,11.40
2015,06,06,03,22,11.40
2015,06,06,03,23,11.40
2015,06,06,03,24,11.40
2015,06,06,03,25,11.40
2015,06,06,03,26,11.40
2015,06,06,03,27,11.40
2015,06,06,03,28,11.40
2015,06,06,03,29,11.40
2015,06,06,03,30,11.40
2015,06,06,03,31,11.40
2015,06,06,03,32,11.40
2015,06,06,03,33,11.40
2015,06,06,03,34,11.40
2015,06,06,03,35,11.40
2015,06,06,03,36,11.40
2015,06,06,03,37,11.40
2015,06,06,03,38,11.40
2015,06,06,03,39,11.40
2015,06,06,03,40,11.40
2015,06,06,03,41,11.40
2015,06,06,03,42,11.40
2015,06,06,03,43,11.40
2015,06,06,03,44,11.40
2015,06,06,03,45,11.40
2015,06,06,03,46,11.40
2015,06,06,03,47,11.40
2015,06,06,03,48,11.40
2015,06,06,03,49,11.40
2015,06,06,03,50,11.40
2015,06,06,03,51,11.40
2015,06,06,03,52,11.30
2015,06,06,03,53,11.30
2015,06,06,03,54,11.30
2015,06,06,03,55,11.30
2015,06,06,03,56,11.30
2015,06,06,03,57,11.30
2015,06,06,03,58,11.30
2015,06,06,03,59,11.30
2015,06,06,04,00,11.20
2015,06,06,04,01,11.20
2015,06,06,04,02,11.20
2015,06,06,04,03,11.20
2015,06,06,04,04,11.20
2015,06,06,04,05,11.20
2015,06,06,04,06,11.20
2015,06,06,04,07,11.20
2015,06,06,04,08,11.20
2015,06,06,04,09,11.20
2015,06,06,04,10,11.10
2015,06,06,04,11,11.10
2015,06,06,04,12,11.10
2015,06,06,04,13,11.10
2015,06,06,04,14,11.10
2015,06,06,04,15,11.10
2015,06,06,04,16,11.10
2015,06,06,04,17,11.00
2015,06,06,04,18,11.00
2015,06,06,04,19,11.00
2015,06,06,04,20,11.00
2015,06,06,04,21,11.00
2015,06,06,04,22,11.00
2015,06,06,04,23,10.90
2015,06,06,04,24,10.90
2015,06,06,04,25,10.90
2015,06,06,04,26,10.90
2015,06,06,04,27,10.90
2015,06,06,04,28,10.90
2015,06,06,04,29,10.90
2015,06,06,04,30,10.90
2015,06,06,04,31,10.90
2015,06,06,04,32,10.90
2015,06,06,04,33,10.90
2015,06,06,04,34,10.90
2015,06,06,04,35,10.90
2015,06,06,04,36,10.90
2015,06,06,04,37,10.90
2015,06,06,04,38,10.80
2015,06,06,04,39,10.80
2015,06,06,04,40,10.80
2015,06,06,04,41,10.80
2015,06,06,04,42,10.80
2015,06,06,04,43,10.80
2015,06,06,04,44,10.80
2015,06,06,04,45,10.80
2015,06,06,04,46,10.80
2015,06,06,04,47,10.80
2015,06,06,04,48,10.90
2015,06,06,04,49,10.90
2015,06,06,04,50,10.90
2015,06,06,04,51,10.90
2015,06,06,04,52,10.90
2015,06,06,04,53,10.90
2015,06,06,04,54,10.90
2015,06,06,04,55,10.90
2015,06,06,04,56,10.90
2015,06,06,04,57,10.90
2015,06,06,04,58,10.90
2015,06,06,04,59,10.90
2015,06,06,05,00,10.90
2015,06,06,05,01,10.90
2015,06,06,05,02,10.90
2015,06,06,05,03,10.90
2015,06,06,05,04,10.90
2015,06,06,05,05,10.90
2015,06,06,05,06,10.90
2015,06,06,05,07,10.90
2015,06,06,05,08,10.90
2015,06,06,05,09,10.90
2015,06,06,05,10,10.90
2015,06,06,05,11,10.90
2015,06,06,05,12,10.90
2015,06,06,05,13,10.90
2015,06,06,05,14,10.90
2015,06,06,05,15,10.90
2015,06,06,05,16,10.90
2015,06,06,05,17,11.00
2015,06,06,05,18,11.00
2015,06,06,05,19,11.00
2015,06,06,05,20,11.00
2015,06,06,05,21,11.00
2015,06,06,05,22,11.00
2015,06,06,05,23,11.00
2015,06,06,05,24,11.10
2015,06,06,05,25,11.10
2015,06,06,05,26,11.10
2015,06,06,05,27,11.10
2015,06,06,05,28,11.10
2015,06,06,05,29,11.10
2015,06,06,05,30,11.10
2015,06,06,05,31,11.10
2015,06,06,05,32,11.10
2015,06,06,05,33,11.10
2015,06,06,05,34,11.10
2015,06,06,05,35,11.10
2015,06,06,05,36,11.10
2015,06,06,05,37,11.10
2015,06,06,05,38,11.10
2015,06,06,05,39,11.10
2015,06,06,05,40,11.10
2015,06,06,05,41,11.10
2015,06,06,05,42,11.10
2015,06,06,05,43,11.10
2015,06,06,05,44,11.00
2015,06,06,05,45,11.00
2015,06,06,05,46,11.00
2015,06,06,05,47,10.90
2015,06,06,05,48,10.90
2015,06,06,05,49,10.90
2015,06,06,05,50,10.90
2015,06,06,05,51,10.90
2015,06,06,05,52,10.80
2015,06,06,05,53,10.80
2015,06,06,05,54,10.80
2015,06,06,05,55,10.80
2015,06,06,05,56,10.80
2015,06,06,05,57,10.80
2015,06,06,05,58,10.80
2015,06,06,05,59,10.80
2015,06,06,06,00,10.80
2015,06,06,06,01,10.80
2015,06,06,06,02,10.80
2015,06,06,06,03,10.90
2015,06,06,06,04,10.90
2015,06,06,06,05,10.90
2015,06,06,06,06,10.90
2015,06,06,06,07,10.90
2015,06,06,06,08,10.90
2015,06,06,06,09,10.90
2015,06,06,06,10,10.90
2015,06,06,06,11,10.90
2015,06,06,06,12,10.90
2015,06,06,06,13,10.90
2015,06,06,06,14,10.90
2015,06,06,06,15,10.90
2015,06,06,06,16,10.90
2015,06,06,06,17,10.90
2015,06,06,06,18,10.90
2015,06,06,06,19,11.00
2015,06,06,06,20,11.00
2015,06,06,06,21,11.00
2015,06,06,06,22,11.00
2015,06,06,06,23,11.00
2015,06,06,06,24,11.00
2015,06,06,06,25,11.00
2015,06,06,06,26,11.10
2015,06,06,06,27,11.10
2015,06,06,06,28,11.10
2015,06,06,06,29,11.10
2015,06,06,06,30,11.10
2015,06,06,06,31,11.10
2015,06,06,06,32,11.20
2015,06,06,06,33,11.20
2015,06,06,06,34,11.20
2015,06,06,06,35,11.30
2015,06,06,06,36,11.30
2015,06,06,06,37,11.30
2015,06,06,06,38,11.40
2015,06,06,06,39,11.40
2015,06,06,06,40,11.40
2015,06,06,06,41,11.40
2015,06,06,06,42,11.40
2015,06,06,06,43,11.40
2015,06,06,06,44,11.40
2015,06,06,06,45,11.50
2015,06,06,06,46,11.50
2015,06,06,06,47,11.50
2015,06,06,06,48,11.50
2015,06,06,06,49,11.60
2015,06,06,06,50,11.60
2015,06,06,06,51,11.60
2015,06,06,06,52,11.60
2015,06,06,06,53,11.60
2015,06,06,06,54,11.60
2015,06,06,06,55,11.60
2015,06,06,06,56,11.60
2015,06,06,06,57,11.60
2015,06,06,06,58,11.60
2015,06,06,06,59,11.70
2015,06,06,07,00,11.70
2015,06,06,07,01,11.70
2015,06,06,07,02,11.80
2015,06,06,07,03,11.80
2015,06,06,07,04,11.80
2015,06,06,07,05,11.90
2015,06,06,07,06,11.90
2015,06,06,07,07,11.90
2015,06,06,07,08,12.00
2015,06,06,07,09,12.10
2015,06,06,07,10,12.10
2015,06,06,07,11,12.20
2015,06,06,07,12,12.30
2015,06,06,07,13,12.30
2015,06,06,07,14,12.40
2015,06,06,07,15,12.50
2015,06,06,07,16,12.60
2015,06,06,07,17,12.70
2015,06,06,07,18,12.70
2015,06,06,07,19,12.80
2015,06,06,07,20,12.90
2015,06,06,07,21,13.00
2015,06,06,07,22,13.00
2015,06,06,07,23,13.10
2015,06,06,07,24,13.10
2015,06,06,07,25,13.20
2015,06,06,07,26,13.30
2015,06,06,07,27,13.30
2015,06,06,07,28,13.40
2015,06,06,07,29,13.40
2015,06,06,07,30,13.40
2015,06,06,07,31,13.40
2015,06,06,07,32,13.40
2015,06,06,07,33,13.40
2015,06,06,07,34,13.40
2015,06,06,07,35,13.40
2015,06,06,07,36,13.50
2015,06,06,07,37,13.60
2015,06,06,07,38,13.70
2015,06,06,07,39,13.80
2015,06,06,07,40,13.90
2015,06,06,07,41,14.00
2015,06,06,07,42,14.00
2015,06,06,07,43,14.00
2015,06,06,07,44,14.00
2015,06,06,07,45,14.00
2015,06,06,07,46,14.00
2015,06,06,07,47,14.00
2015,06,06,07,48,14.00
2015,06,06,07,49,14.00
2015,06,06,07,50,14.00
2015,06,06,07,51,14.00
2015,06,06,07,52,13.90
2015,06,06,07,53,13.90
2015,06,06,07,54,13.90
2015,06,06,07,55,13.90
2015,06,06,07,56,14.00
2015,06,06,07,57,14.00
2015,06,06,07,58,14.10
2015,06,06,07,59,14.20
2015,06,06,08,00,14.30
2015,06,06,08,01,14.30
2015,06,06,08,02,14.40
2015,06,06,08,03,14.60
2015,06,06,08,04,14.70
2015,06,06,08,05,14.80
2015,06,06,08,06,14.80
2015,06,06,08,07,14.90
2015,06,06,08,08,14.90
2015,06,06,08,09,14.90
2015,06,06,08,10,14.90
2015,06,06,08,11,14.90
2015,06,06,08,12,14.90
2015,06,06,08,13,14.90
2015,06,06,08,14,14.90
2015,06,06,08,15,14.80
2015,06,06,08,16,14.70
2015,06,06,08,17,14.60
2015,06,06,08,18,14.50
2015,06,06,08,19,14.40
2015,06,06,08,20,14.30
2015,06,06,08,21,14.30
2015,06,06,08,22,14.20
2015,06,06,08,23,14.20
2015,06,06,08,24,14.20
2015,06,06,08,25,14.20
2015,06,06,08,26,14.30
2015,06,06,08,27,14.30
2015,06,06,08,28,14.30
2015,06,06,08,29,14.30
2015,06,06,08,30,14.30
2015,06,06,08,31,14.30
2015,06,06,08,32,14.30
2015,06,06,08,33,14.40
2015,06,06,08,34,14.40
2015,06,06,08,35,14.40
2015,06,06,08,36,14.30
2015,06,06,08,37,14.20
2015,06,06,08,38,14.10
2015,06,06,08,39,14.00
2015,06,06,08,40,13.90
2015,06,06,08,41,13.90
2015,06,06,08,42,13.80
2015,06,06,08,43,13.70
2015,06,06,08,44,13.70
2015,06,06,08,45,13.60
2015,06,06,08,46,13.60
2015,06,06,08,47,13.70
2015,06,06,08,48,13.70
2015,06,06,08,49,13.70
2015,06,06,08,50,13.70
2015,06,06,08,51,13.70
2015,06,06,08,52,13.70
2015,06,06,08,53,13.70
2015,06,06,08,54,13.70
2015,06,06,08,55,13.70
2015,06,06,08,56,13.60
2015,06,06,08,57,13.50
2015,06,06,08,58,13.40
2015,06,06,08,59,13.30
2015,06,06,09,00,13.30
2015,06,06,09,01,13.30
2015,06,06,09,02,13.30
2015,06,06,09,03,13.30
2015,06,06,09,04,13.30
2015,06,06,09,05,13.40
2015,06,06,09,06,13.50
2015,06,06,09,07,13.60
2015,06,06,09,08,13.60
2015,06,06,09,09,13.70
2015,06,06,09,10,13.70
2015,06,06,09,11,13.80
2015,06,06,09,12,13.80
2015,06,06,09,13,13.90
2015,06,06,09,14,14.00
2015,06,06,09,15,14.00
2015,06,06,09,16,14.00
2015,06,06,09,17,14.10
2015,06,06,09,18,14.00
2015,06,06,09,19,14.00
2015,06,06,09,20,14.00
2015,06,06,09,21,14.00
2015,06,06,09,22,13.90
2015,06,06,09,23,13.90
2015,06,06,09,24,13.90
2015,06,06,09,25,13.90
2015,06,06,09,26,13.90
2015,06,06,09,27,13.80
2015,06,06,09,28,13.80
2015,06,06,09,29,13.70
2015,06,06,09,30,13.60
2015,06,06,09,31,13.60
2015,06,06,09,32,13.50
2015,06,06,09,33,13.40
2015,06,06,09,34,13.40
2015,06,06,09,35,13.40
2015,06,06,09,36,13.30
2015,06,06,09,37,13.30
2015,06,06,09,38,13.40
2015,06,06,09,39,13.40
2015,06,06,09,40,13.50
2015,06,06,09,41,13.50
2015,06,06,09,42,13.60
2015,06,06,09,43,13.60
2015,06,06,09,44,13.60
2015,06,06,09,45,13.60
2015,06,06,09,46,13.50
2015,06,06,09,47,13.40
2015,06,06,09,48,13.40
2015,06,06,09,49,13.40
2015,06,06,09,50,13.40
2015,06,06,09,51,13.50
2015,06,06,09,52,13.50
2015,06,06,09,53,13.60
2015,06,06,09,54,13.60
2015,06,06,09,55,13.60
2015,06,06,09,56,13.50
2015,06,06,09,57,13.40
2015,06,06,09,58,13.30
2015,06,06,09,59,13.20
2015,06,06,10,00,13.10
2015,06,06,10,01,13.10
2015,06,06,10,02,13.10
2015,06,06,10,03,13.10
2015,06,06,10,04,13.10
2015,06,06,10,05,13.10
2015,06,06,10,06,13.10
2015,06,06,10,07,13.00
2015,06,06,10,08,12.90
2015,06,06,10,09,12.90
2015,06,06,10,10,12.90
2015,06,06,10,11,12.90
2015,06,06,10,12,12.90
2015,06,06,10,13,12.90
2015,06,06,10,14,13.00
2015,06,06,10,15,13.00
2015,06,06,10,16,13.00
2015,06,06,10,17,13.00
2015,06,06,10,18,12.90
2015,06,06,10,19,12.90
2015,06,06,10,20,12.80
2015,06,06,10,21,12.80
2015,06,06,10,22,12.80
2015,06,06,10,23,12.80
2015,06,06,10,24,12.80
2015,06,06,10,25,12.80
2015,06,06,10,26,12.80
2015,06,06,10,27,12.80
2015,06,06,10,28,12.80
2015,06,06,10,29,12.70
2015,06,06,10,30,12.70
2015,06,06,10,31,12.70
2015,06,06,10,32,12.70
2015,06,06,10,33,12.70
2015,06,06,10,34,12.70
2015,06,06,10,35,12.70
2015,06,06,10,36,12.70
2015,06,06,10,37,12.70
2015,06,06,10,38,12.70
2015,06,06,10,39,12.70
2015,06,06,10,40,12.80
2015,06,06,10,41,12.80
2015,06,06,10,42,12.90
2015,06,06,10,43,12.90
2015,06,06,10,44,12.90
2015,06,06,10,45,12.90
2015,06,06,10,46,12.90
2015,06,06,10,47,13.00
2015,06,06,10,48,13.00
2015,06,06,10,49,13.00
2015,06,06,10,50,13.10
2015,06,06,10,51,13.10
2015,06,06,10,52,13.20
2015,06,06,10,53,13.20
2015,06,06,10,54,13.20
2015,06,06,10,55,13.10
2015,06,06,10,56,13.10
2015,06,06,10,57,13.10
2015,06,06,10,58,13.10
2015,06,06,10,59,13.10
2015,06,06,11,00,13.10
2015,06,06,11,01,13.10
2015,06,06,11,02,13.20
2015,06,06,11,03,13.20
2015,06,06,11,04,13.20
2015,06,06,11,05,13.20
2015,06,06,11,06,13.20
2015,06,06,11,07,13.20
2015,06,06,11,08,13.10
2015,06,06,11,09,13.00
2015,06,06,11,10,13.00
2015,06,06,11,11,12.90
2015,06,06,11,12,12.90
2015,06,06,11,13,12.90
2015,06,06,11,14,12.80
2015,06,06,11,15,12.80
2015,06,06,11,16,12.80
2015,06,06,11,17,12.70
2015,06,06,11,18,12.70
2015,06,06,11,19,12.70
2015,06,06,11,20,12.60
2015,06,06,11,21,12.60
2015,06,06,11,22,12.60
2015,06,06,11,23,12.60
2015,06,06,11,24,12.60
2015,06,06,11,25,12.60
2015,06,06,11,26,12.50
2015,06,06,11,27,12.50
2015,06,06,11,28,12.50
2015,06,06,11,29,12.40
2015,06,06,11,30,12.40
2015,06,06,11,31,12.40
2015,06,06,11,32,12.40
2015,06,06,11,33,12.40
2015,06,06,11,34,12.40
2015,06,06,11,35,12.40
2015,06,06,11,36,12.40
2015,06,06,11,37,12.40
2015,06,06,11,38,12.40
2015,06,06,11,39,12.40
2015,06,06,11,40,12.50
2015,06,06,11,41,12.50
2015,06,06,11,42,12.60
2015,06,06,11,43,12.60
2015,06,06,11,44,12.70
2015,06,06,11,45,12.70
2015,06,06,11,46,12.80
2015,06,06,11,47,12.80
2015,06,06,11,48,12.90
2015,06,06,11,49,12.90
2015,06,06,11,50,12.90
2015,06,06,11,51,13.00
2015,06,06,11,52,13.10
2015,06,06,11,53,13.10
2015,06,06,11,54,13.10
2015,06,06,11,55,13.10
2015,06,06,11,56,13.10
2015,06,06,11,57,13.10
2015,06,06,11,58,13.10
2015,06,06,11,59,13.10
2015,06,06,12,00,13.10
2015,06,06,12,01,13.10
2015,06,06,12,02,13.10
2015,06,06,12,03,13.10
2015,06,06,12,04,13.20
2015,06,06,12,05,13.30
2015,06,06,12,06,13.30
2015,06,06,12,07,13.40
2015,06,06,12,08,13.40
2015,06,06,12,09,13.50
2015,06,06,12,10,13.60
2015,06,06,12,11,13.60
2015,06,06,12,12,13.70
2015,06,06,12,13,13.70
2015,06,06,12,14,13.80
2015,06,06,12,15,13.90
2015,06,06,12,16,13.90
2015,06,06,12,17,14.00
2015,06,06,12,18,14.10
2015,06,06,12,19,14.20
2015,06,06,12,20,14.30
2015,06,06,12,21,14.30
2015,06,06,12,22,14.40
2015,06,06,12,23,14.50
2015,06,06,12,24,14.60
2015,06,06,12,25,14.70
2015,06,06,12,26,14.80
2015,06,06,12,27,14.90
2015,06,06,12,28,15.00
2015,06,06,12,29,15.10
2015,06,06,12,30,15.10
2015,06,06,12,31,15.20
2015,06,06,12,32,15.30
2015,06,06,12,33,15.40
2015,06,06,12,34,15.50
2015,06,06,12,35,15.60
2015,06,06,12,36,15.70
2015,06,06,12,37,15.90
2015,06,06,12,38,16.10
2015,06,06,12,39,16.30
2015,06,06,12,40,16.40
2015,06,06,12,41,16.60
2015,06,06,12,42,16.60
2015,06,06,12,43,16.70
2015,06,06,12,44,16.60
2015,06,06,12,45,16.40
2015,06,06,12,46,16.30
2015,06,06,12,47,16.20
2015,06,06,12,48,16.10
2015,06,06,12,49,16.10
2015,06,06,12,50,16.00
2015,06,06,12,51,15.90
2015,06,06,12,52,15.70
2015,06,06,12,53,15.70
2015,06,06,12,54,15.70
2015,06,06,12,55,15.70
2015,06,06,12,56,15.70
2015,06,06,12,57,15.80
2015,06,06,12,58,15.90
2015,06,06,12,59,15.90
2015,06,06,13,00,15.90
2015,06,06,13,01,15.70
2015,06,06,13,02,15.70
2015,06,06,13,03,15.70
2015,06,06,13,04,15.70
2015,06,06,13,05,15.70
2015,06,06,13,06,15.80
2015,06,06,13,07,15.80
2015,06,06,13,08,15.90
2015,06,06,13,09,16.00
2015,06,06,13,10,16.00
2015,06,06,13,11,16.00
2015,06,06,13,12,16.00
2015,06,06,13,13,16.00
2015,06,06,13,14,16.00
2015,06,06,13,15,16.00
2015,06,06,13,16,16.20
2015,06,06,13,17,16.30
2015,06,06,13,18,16.50
2015,06,06,13,19,16.70
2015,06,06,13,20,16.90
2015,06,06,13,21,17.10
2015,06,06,13,22,17.30
2015,06,06,13,23,17.50
2015,06,06,13,24,17.70
2015,06,06,13,25,17.90
2015,06,06,13,26,18.00
2015,06,06,13,27,18.10
2015,06,06,13,28,18.20
2015,06,06,13,29,18.30
2015,06,06,13,30,18.30
2015,06,06,13,31,18.40
2015,06,06,13,32,18.40
2015,06,06,13,33,18.40
2015,06,06,13,34,18.40
2015,06,06,13,35,18.30
2015,06,06,13,36,18.20
2015,06,06,13,37,18.10
2015,06,06,13,38,18.00
2015,06,06,13,39,17.90
2015,06,06,13,40,17.90
2015,06,06,13,41,17.90
2015,06,06,13,42,18.00
2015,06,06,13,43,18.10
2015,06,06,13,44,18.30
2015,06,06,13,45,18.50
2015,06,06,13,46,18.70
2015,06,06,13,47,18.80
2015,06,06,13,48,19.00
2015,06,06,13,49,19.20
2015,06,06,13,50,19.30
2015,06,06,13,51,19.40
2015,06,06,13,52,19.50
2015,06,06,13,53,19.70
2015,06,06,13,54,19.70
2015,06,06,13,55,19.80
2015,06,06,13,56,19.80
2015,06,06,13,57,19.80
2015,06,06,13,58,19.90
2015,06,06,13,59,19.90
2015,06,06,14,00,19.90
2015,06,06,14,01,19.90
2015,06,06,14,02,19.90
2015,06,06,14,03,19.90
2015,06,06,14,04,19.90
2015,06,06,14,05,19.90
2015,06,06,14,06,19.90
2015,06,06,14,07,19.90
2015,06,06,14,08,20.00
2015,06,06,14,09,20.00
2015,06,06,14,10,20.10
2015,06,06,14,11,20.10
2015,06,06,14,12,20.20
2015,06,06,14,13,20.20
2015,06,06,14,14,20.20
2015,06,06,14,15,20.30
2015,06,06,14,16,20.30
2015,06,06,14,17,20.30
2015,06,06,14,18,20.30
2015,06,06,14,19,20.40
2015,06,06,14,20,20.40
2015,06,06,14,21,20.40
2015,06,06,14,22,20.40
2015,06,06,14,23,20.50
2015,06,06,14,24,20.50
2015,06,06,14,25,20.50
2015,06,06,14,26,20.60
2015,06,06,14,27,20.60
2015,06,06,14,28,20.70
2015,06,06,14,29,20.70
2015,06,06,14,30,20.80
2015,06,06,14,31,20.80
2015,06,06,14,32,20.80
2015,06,06,14,33,20.90
2015,06,06,14,34,20.90
2015,06,06,14,35,21.00
2015,06,06,14,36,21.00
2015,06,06,14,37,21.10
2015,06,06,14,38,21.10
2015,06,06,14,39,21.10
2015,06,06,14,40,21.10
2015,06,06,14,41,21.10
2015,06,06,14,42,21.10
2015,06,06,14,43,21.10
2015,06,06,14,44,21.10
2015,06,06,14,45,21.00
2015,06,06,14,46,21.00
2015,06,06,14,47,21.00
2015,06,06,14,48,21.00
2015,06,06,14,49,21.00
2015,06,06,14,50,21.00
2015,06,06,14,51,21.00
2015,06,06,14,52,21.00
2015,06,06,14,53,21.00
2015,06,06,14,54,21.00
2015,06,06,14,55,21.00
2015,06,06,14,56,21.00
2015,06,06,14,57,21.00
2015,06,06,14,58,21.10
2015,06,06,14,59,21.10
2015,06,06,15,00,21.10
2015,06,06,15,01,21.10
2015,06,06,15,02,21.10
2015,06,06,15,03,21.20
2015,06,06,15,04,21.30
2015,06,06,15,05,21.30
2015,06,06,15,06,21.40
2015,06,06,15,07,21.50
2015,06,06,15,08,21.50
2015,06,06,15,09,21.60
2015,06,06,15,10,21.70
2015,06,06,15,11,21.70
2015,06,06,15,12,21.70
2015,06,06,15,13,21.70
2015,06,06,15,14,21.70
2015,06,06,15,15,21.70
2015,06,06,15,16,21.70
2015,06,06,15,17,21.70
2015,06,06,15,18,21.70
2015,06,06,15,19,21.70
2015,06,06,15,20,21.70
2015,06,06,15,21,21.70
2015,06,06,15,22,21.70
2015,06,06,15,23,21.70
2015,06,06,15,24,21.80
2015,06,06,15,25,21.80
2015,06,06,15,26,21.80
2015,06,06,15,27,21.90
2015,06,06,15,28,21.90
2015,06,06,15,29,21.90
2015,06,06,15,30,22.00
2015,06,06,15,31,22.10
2015,06,06,15,32,22.20
2015,06,06,15,33,22.30
2015,06,06,15,34,22.40
2015,06,06,15,35,22.50
2015,06,06,15,36,22.50
2015,06,06,15,37,22.60
2015,06,06,15,38,22.70
2015,06,06,15,39,22.70
2015,06,06,15,40,22.80
2015,06,06,15,41,22.80
2015,06,06,15,42,22.70
2015,06,06,15,43,22.80
2015,06,06,15,44,22.70
2015,06,06,15,45,22.70
2015,06,06,15,46,22.60
2015,06,06,15,47,22.60
2015,06,06,15,48,22.60
2015,06,06,15,49,22.60
2015,06,06,15,50,22.60
2015,06,06,15,51,22.70
2015,06,06,15,52,22.70
2015,06,06,15,53,22.70
2015,06,06,15,54,22.70
2015,06,06,15,55,22.60
2015,06,06,15,56,22.40
2015,06,06,15,57,22.30
2015,06,06,15,58,22.10
2015,06,06,15,59,22.00
2015,06,06,16,00,21.90
2015,06,06,16,01,21.70
2015,06,06,16,02,21.40
2015,06,06,16,03,21.10
2015,06,06,16,04,20.80
2015,06,06,16,05,20.50
2015,06,06,16,06,20.10
2015,06,06,16,07,20.00
2015,06,06,16,08,20.10
2015,06,06,16,09,20.20
2015,06,06,16,10,20.30
2015,06,06,16,11,20.50
2015,06,06,16,12,20.60
2015,06,06,16,13,20.70
2015,06,06,16,14,20.80
2015,06,06,16,15,20.80
2015,06,06,16,16,20.80
2015,06,06,16,17,20.90
2015,06,06,16,18,20.90
2015,06,06,16,19,21.00
2015,06,06,16,20,21.10
2015,06,06,16,21,21.20
2015,06,06,16,22,21.30
2015,06,06,16,23,21.40
2015,06,06,16,24,21.60
2015,06,06,16,25,21.80
2015,06,06,16,26,22.00
2015,06,06,16,27,22.20
2015,06,06,16,28,22.30
2015,06,06,16,29,22.40
2015,06,06,16,30,22.60
2015,06,06,16,31,22.60
2015,06,06,16,32,22.70
2015,06,06,16,33,22.80
2015,06,06,16,34,22.80
2015,06,06,16,35,22.80
2015,06,06,16,36,22.80
2015,06,06,16,37,22.80
2015,06,06,16,38,22.80
2015,06,06,16,39,22.80
2015,06,06,16,40,22.70
2015,06,06,16,41,22.70
2015,06,06,16,42,22.70
2015,06,06,16,43,22.70
2015,06,06,16,44,22.60
2015,06,06,16,45,22.60
2015,06,06,16,46,22.60
2015,06,06,16,47,22.70
2015,06,06,16,48,22.70
2015,06,06,16,49,22.70
2015,06,06,16,50,22.70
2015,06,06,16,51,22.70
2015,06,06,16,52,22.70
2015,06,06,16,53,22.70
2015,06,06,16,54,22.70
2015,06,06,16,55,22.70
2015,06,06,16,56,22.70
2015,06,06,16,57,22.70
2015,06,06,16,58,22.70
2015,06,06,16,59,22.60
2015,06,06,17,00,22.60
2015,06,06,17,01,22.50
2015,06,06,17,02,22.50
2015,06,06,17,03,22.50
2015,06,06,17,04,22.50
2015,06,06,17,05,22.60
2015,06,06,17,06,22.60
2015,06,06,17,07,22.60
2015,06,06,17,08,22.70
2015,06,06,17,09,22.60
2015,06,06,17,10,22.60
2015,06,06,17,11,22.50
2015,06,06,17,12,22.40
2015,06,06,17,13,22.30
2015,06,06,17,14,22.30
2015,06,06,17,15,22.20
2015,06,06,17,16,22.20
2015,06,06,17,17,22.20
2015,06,06,17,18,22.20
2015,06,06,17,19,22.10